CW5761 Weather Reports


Display with metric or nautical units.
time (UTC)temp
F
wind
direction
speed
MPH
gust
MPH
rain 1hr
in
rain 24hr
in
rain mn
in
humidity
%
barometer
mb
20260505165004 82 340 0.0 0.0 0.00 0.00 0.00 42 1009.6
20260505164004 82 349 0.0 0.0 0.00 0.00 0.00 44 1009.6
20260505163004 82 116 0.0 0.0 0.00 0.00 0.00 45 1009.6
20260505162004 82 126 0.0 0.0 0.00 0.00 0.00 42 1009.7
20260505153004 79 335 0.0 0.0 0.00 0.00 0.00 47 1010.2
20260505151005 78 94 0.0 0.0 0.00 0.00 0.00 49 1010.3
20260505115008 57 93 0.0 0.0 0.00 0.00 0.00 86 1011.0
20260505114009 55 93 0.0 0.0 0.00 0.00 0.00 89 1011.1
20260505113004 54 93 0.0 0.0 0.00 0.00 0.00 90 1011.1
20260505112009 53 93 0.0 0.0 0.00 0.00 0.00 91 1011.0
20260505111005 52 93 0.0 0.0 0.00 0.00 0.00 91 1011.0
20260505110229 51 93 0.0 0.0 0.00 0.00 0.00 90 1011.0
20260505102004 51 93 0.0 0.0 0.00 0.00 0.00 88 1010.7
20260505101500 51 93 0.0 0.0 0.00 0.00 0.00 88 1010.7
20260505095004 52 93 0.0 0.0 0.00 0.00 0.00 86 1010.4
20260505094009 53 93 0.0 0.0 0.00 0.00 0.00 85 1010.4
20260505093004 53 93 0.0 0.0 0.00 0.00 0.00 85 1010.4
20260505091004 54 93 0.0 0.0 0.00 0.00 0.00 83 1010.0
20260505090750 54 93 0.0 0.0 0.00 0.00 0.00 82 1010.0
20260505085004 55 93 0.0 0.0 0.00 0.00 0.00 81 1009.9
20260505082004 57 93 0.0 0.0 0.00 0.00 0.00 78 1009.9
20260505081004 58 93 0.0 0.0 0.00 0.00 0.00 77 1010.1
20260505080005 58 93 0.0 0.0 0.00 0.00 0.00 77 1010.1
20260505075004 58 93 0.0 0.0 0.00 0.00 0.00 77 1010.1
20260505074004 58 93 0.0 0.0 0.00 0.00 0.00 75 1010.0
20260505072004 59 93 0.0 0.0 0.00 0.00 0.00 74 1009.9
20260505071004 59 93 0.0 0.0 0.00 0.00 0.00 74 1009.9
20260505070005 58 93 0.0 0.0 0.00 0.00 0.00 74 1009.9
20260505065004 58 93 0.0 0.0 0.00 0.00 0.00 74 1009.9
20260505064005 58 93 0.0 0.0 0.00 0.00 0.00 73 1009.9
20260505062004 58 93 0.0 0.0 0.00 0.00 0.00 73 1009.9
20260505055005 58 93 0.0 0.0 0.00 0.00 0.00 72 1009.8
20260505054008 58 93 0.0 0.0 0.00 0.00 0.00 73 1009.9
20260505053005 58 93 0.0 0.0 0.00 0.00 0.00 71 1009.9
20260505052010 58 93 0.0 0.0 0.00 0.00 0.00 71 1010.1
20260505051354 58 93 0.0 0.0 0.00 0.00 0.00 72 1010.2
20260505040006 56 93 0.0 0.0 0.00 0.00 0.00 71 1010.0
20260505035245 56 93 0.0 0.0 0.00 0.00 0.00 72 1010.0
20260505025004 56 93 0.0 0.0 0.00 0.00 0.00 72 1010.4
20260505022004 57 93 0.0 0.0 0.00 0.00 0.00 69 1010.4
20260505021008 58 93 0.0 0.0 0.00 0.00 0.00 67 1010.5
20260505020005 59 93 0.0 0.0 0.00 0.00 0.00 66 1010.5
20260505015004 59 93 0.0 0.0 0.00 0.00 0.00 65 1010.4
20260505014008 60 93 0.0 0.0 0.00 0.00 0.00 63 1010.3
20260505013005 61 93 0.0 0.0 0.00 0.00 0.00 61 1010.3
20260505012429 61 93 0.0 0.0 0.00 0.00 0.00 59 1010.0
20260505005005 64 93 0.0 0.0 0.00 0.00 0.00 53 1009.7
20260505004009 65 93 0.0 0.0 0.00 0.00 0.00 52 1009.6
20260505003004 65 93 0.0 0.0 0.00 0.00 0.00 48 1009.6
20260504234003 69 94 0.0 0.0 0.00 0.00 0.00 45 1009.3
20260504233009 69 93 0.0 0.0 0.00 0.00 0.00 44 1009.3
20260504232004 70 92 0.0 0.0 0.00 0.00 0.00 43 1009.2
20260504231003 70 96 0.0 0.0 0.00 0.00 0.00 42 1009.2
20260504225208 71 100 0.0 0.0 0.00 0.00 0.00 43 1009.1
20260504215004 72 84 0.0 0.0 0.00 0.00 0.00 42 1009.4
20260504214004 72 75 0.0 0.0 0.00 0.00 0.00 40 1009.5
20260504213004 72 36 0.0 0.0 0.00 0.00 0.00 42 1009.5
20260504212004 72 89 1.0 0.0 0.00 0.00 0.00 40 1009.5
20260504211003 73 90 0.0 0.0 0.00 0.00 0.00 40 1009.5
20260504210004 73 105 0.0 0.0 0.00 0.00 0.00 40 1009.5
20260504205004 73 355 0.0 0.0 0.00 0.00 0.00 39 1009.6
20260504204008 73 90 2.0 0.0 0.00 0.00 0.00 41 1009.5
20260504203004 73 83 0.0 0.0 0.00 0.00 0.00 41 1009.5
20260504202914 73 82 0.0 0.0 0.00 0.00 0.00 43 1009.5
20260504185004 73 326 0.0 0.0 0.00 0.00 0.00 40 1010.6
20260504184005 72 344 0.0 0.0 0.00 0.00 0.00 38 1010.6
20260504183008 73 130 3.0 0.0 0.00 0.00 0.00 39 1010.6
20260504182008 73 99 0.0 0.0 0.00 0.00 0.00 38 1010.8
20260504181004 72 100 0.0 0.0 0.00 0.00 0.00 39 1011.2
20260504175005 72 163 0.0 0.0 0.00 0.00 0.00 40 1011.3
20260504174008 72 63 0.0 0.0 0.00 0.00 0.00 39 1011.6
20260504173003 71 119 2.0 0.0 0.00 0.00 0.00 42 1011.6
20260504172228 71 332 0.0 0.0 0.00 0.00 0.00 42 1011.7